Location: Beddau
(51.5575°N, 3.3561°W)
Time: 02:24:00
(UTC+00:00)

SL-4 R/B - Pass Details

Date: 03 March 2021
Orbit: 428 x 663 km, 51.6° (Epoch: 13 April)

Event Time Altitude Azimuth Distance (km) Brightness Sun altitude
Rises 19:48:42 0° 282° (WNW) 2,480 7.1 -18.0°
Reaches altitude 10° 19:50:54 10° 279° (W) 1,577 5.6 -18.3°
Maximum altitude 19:54:22 60° 199° (SSW) 504 1.8 -18.8°
Enters shadow 19:54:49 53° 161° (SSE) 539 1.7 -18.9°
